Regional Weather Roundup
Issued by NWS

Home | Current Version | Previous Version | Text Only | Print | Product List | Glossary On
Versions: 1 2 3 4 5 6 7 8 9 10 11 12 13 14 15 16 17 18 19 20 21 22 23 24 25 26 27 28 29 30 31 32 33 34 35 36 37 38 39 40 41 42 43 44 45 46 47 48 49 50
000
ASUS42 KKEY 020710
RWRKEY

FLORIDA REGIONAL WEATHER ROUNDUP FOR THE FLORIDA KEYS
NATIONAL WEATHER SERVICE KEY WEST FLORIDA
200 AM EST MON MAR 02 2015

...SOUTH FLORIDA AND THE KEYS...

CITY           SKY/WX    TMP DP  RH WIND       PRES   REMARKS
FORT MYERS     CLEAR     67  66  97 CALM      30.26F
SW REGIONAL AP CLEAR     67  65  93 NE3       30.26F
NAPLES         CLEAR     67  67 100 NE5       30.25F
MIAMI          PTCLDY    73  67  81 E8        30.25F
WEST KENDALL   CLEAR     69  67  93 E8        30.25F
HOMESTEAD      CLEAR     74  67  81 E9        30.24F
MARATHON       PTCLDY    74  72  93 E8        30.22F
BOCA CHICA NAS NOT AVBL
KEY WEST INTL  CLOUDY    75  71  87 E7        30.22F

...INTERNATIONAL WEATHER...

CITY           SKY/WX    TMP DP  RH WIND       PRES   REMARKS
NASSAU BAHAMAS PTCLDY    73  66  78 E7        30.24F
CANCUN MEXICO  PTCLDY    77  73  88 E5        30.16F
COZUMEL MEXICO CLEAR     70  70 100 E3        30.15F

ADJACENT COASTAL WATERS...

STATION/POSITION TIME  SKY/WX   TEMP    WIND        PRES    WAVE
                                AIR SEA DIR/SP/G            HT/PER
                 (UTC)          (F)     (DEG/KT/KT) (MB)    (FT/S)
PULASKI SHOAL LI 0600            72      80/ 16/ 18 1023.7F
SAND KEY         0650            74      70/ 12/ 13 1023.2F
SOMBRERO KEY     0700            74      80/ 13/ 15 1023.6F
LONG KEY         0600            76 77   90/ 17/ 19 1024.7F
MOLASSES REEF    0700            75 76   80/ 12/ 14 1023.5F
FOWEY ROCKS      NOT AVBL
Buoy 42080       NOT AVBL

$$


USA.gov is the U.S. government's official web portal to all federal, state and local government web resources and services.